Regional Weather Roundup
Issued by NWS

Home | Current Version | Previous Version | Text Only | Print | Product List | Glossary Off
Versions: 1 2 3 4 5 6 7 8 9 10 11 12 13 14 15 16 17 18 19 20 21 22 23 24 25 26 27 28 29 30 31 32 33 34 35 36 37 38 39 40 41 42 43 44 45 46 47 48 49 50

000
ASUS43 KLOT 180108
RWRIL

ILLINOIS REGIONAL WEATHER ROUNDUP
NATIONAL WEATHER SERVICE CHICAGO/ROMEOVILLE IL
700 PM CST SUN DEC 17 2017

NOTE: "FAIR" INDICATES FEW OR NO CLOUDS BELOW 12,000 FEET WITH NO
SIGNIFICANT WEATHER AND/OR OBSTRUCTIONS TO VISIBILITY.

* THESE STATIONS ARE NOT UNDER NWS QUALITY CONTROL. THEY ALSO MAY NOT
  REPORT WEATHER SUCH AS PRECIPITATION OR FOG.

ILZ001-002-007-009-015-016-024-180200-
NORTHWEST ILLINOIS

CITY           SKY/WX    TMP DP  RH WIND       PRES   REMARKS
MOLINE         LGT RAIN  40  39  97 CALM      29.99S FOG
STERLING*      CLOUDY    38  33  82 CALM      30.01S
SAVANNA*       CLOUDY    35  34  96 CALM      30.00S FOG
$$

ILZ003-004-008-010-011-017-018-180200-
NORTH CENTRAL ILLINOIS

CITY           SKY/WX    TMP DP  RH WIND       PRES   REMARKS
ROCKFORD       CLOUDY    35  33  92 SE3       30.00F FOG
FREEPORT*      CLOUDY    36  33  90 CALM      30.00S FOG
ROCHELLE*      CLOUDY    35  31  86 S7        29.99F WCI  29
DE KALB*       CLOUDY    39  31  72 SW6       29.99F WCI  35
PERU*          CLOUDY    42  30  62 CALM      30.01S
$$

ILZ005-006-012>014-019>023-180200-
NORTHEAST ILLINOIS

CITY           SKY/WX    TMP DP  RH WIND       PRES   REMARKS
CHICAGO-OHARE  CLOUDY    41  30  65 SW6       29.99R
CHICAGO-MIDWAY CLOUDY    43  33  68 W3        30.00R
AURORA         CLOUDY    40  31  70 SW6       30.00S
LANSING*       CLOUDY    42  38  84 SW8       30.01S
JOLIET*        CLOUDY    46  37  71 CALM      30.01S
WAUKEGAN       CLOUDY    33  31  92 CALM      29.99R FOG
DUPAGE AIRPORT CLOUDY    39  32  76 SW5       29.99R
KANKAKEE*      LGT RAIN  43  37  78 S7        30.04R
WHEELING       CLOUDY    38  35  89 CALM      30.01R
MORRIS*        CLOUDY    43  35  72 W5        30.00S
ROMEOVILLE*    CLOUDY    40  32  70 CALM      30.01S
NORTHERLY ISL    N/A     38  33  82 CALM        N/A
$$

LMZ740>746-180200-
SOUTHERN LAKE MICHIGAN

STATION/POSITION SKY/WX   TEMP    WIND        PRES    VSBY  WAVE
                          AIR SEA DIR/SP/G                  HT/PER
                          (F)     (DEG/KT/KT) (MB)    (MI)  (FT/S)
HARRISON CRIB              42     230/  2/  2   N/A
BURNHAM HARBOR             38      CALM  /  3   N/A
CALUMET HARBOR             43     190/  7/  9 1015.2R
BURNS HARBOR               43     190/ 11/ 14 1016.6R
MICHIGAN CITY              42     170/ 14/ 16   N/A
$$

ILZ025>027-034>036-040-047-049-050-058-095>099-180200-
WEST-CENTRAL ILLINOIS

CITY           SKY/WX    TMP DP  RH WIND       PRES   REMARKS
QUINCY         CLOUDY    44  43  96 SW8       30.01S
GALESBURG*     DRIZZLE   42  42 100 CALM      30.00S
MACOMB*        CLOUDY    45  43  93 SW6       30.03R FOG
JACKSONVILLE*  CLOUDY    47  36  65 S6        30.01F
PITTSFIELD*    CLOUDY    47  45  91 W5        30.04R
$$

ILZ028>032-037-038-041>044-048-051>054-059>061-180200-
CENTRAL ILLINOIS

CITY           SKY/WX    TMP DP  RH WIND       PRES   REMARKS
PONTIAC        CLOUDY    46  38  74 S6        30.03S
BLOOMINGTON    CLOUDY    43  39  86 S9        30.03S
DECATUR        CLOUDY    45  39  79 S13       30.05R
PEORIA         CLOUDY    45  41  86 S6        30.02R
LACON*         CLOUDY    44  40  87 S3        30.01S
LINCOLN*       CLOUDY    46  40  81 S7        30.02S
SPRINGFIELD    CLOUDY    47  39  74 S7        30.03S
TAYLORVILLE    CLOUDY    44  39  84 S15       30.04S
$$

ILZ033-039-045-046-055>057-062-063-180200-
EAST-CENTRAL ILLINOIS

CITY           SKY/WX    TMP DP  RH WIND       PRES   REMARKS
CHAMPAIGN      CLOUDY    44  39  82 S13       30.05R
DANVILLE*      CLOUDY    42  37  84 S7        30.04R
RANTOUL*       CLOUDY    45  40  83 S7        30.05S
MATTOON        CLOUDY    43  39  86 S9        30.06S
PARIS*         CLOUDY    42  39  89 S8        30.08S
$$

ILZ079-100>102-180200-
SOUTHWEST ILLINOIS

CITY           SKY/WX    TMP DP  RH WIND       PRES   REMARKS
ALTON          CLOUDY    48  43  81 CALM      30.05R
BELLEVILLE     CLOUDY    48  41  78 SW8       30.06R
CAHOKIA*       CLOUDY    49  41  74 S7        30.06R
SPARTA*        CLOUDY    45  44  97 S7        30.09S
$$

ILZ064>066-069>071-074>076-080>082-084>086-088>090-092>094-180200-
SOUTH-CENTRAL ILLINOIS

CITY           SKY/WX    TMP DP  RH WIND       PRES   REMARKS
CARBONDALE     CLOUDY    44  44 100 S9        30.10R
CAIRO*         CLOUDY    45  43  93 S5        30.11F
EFFINGHAM*     CLOUDY    44  41  89 S8        30.11R
MARION         CLOUDY    45  45 100 S6        30.12R
MT. VERNON     CLOUDY    44  42  93 S6        30.11R FOG
CENTRALIA*     CLOUDY    44  43  97 S5        30.09R FOG
SALEM*         DRIZZLE   45  42  91 S6        30.09S
METROPOLIS*    CLOUDY    46  43  90 S3        30.12S
$$

ILZ067-068-072-073-078-083-087-091-180200-
SOUTHEAST ILLINOIS

CITY           SKY/WX    TMP DP  RH WIND       PRES   REMARKS
LAWRENCEVILLE  CLOUDY    43  40  89 S8        30.12R
FLORA*         CLOUDY    44  42  95 S6        30.11S FOG
FAIRFIELD*     CLOUDY    43  42  97 CALM      30.11R FOG
HARRISBURG*    CLOUDY    45  43  93 S5        30.12S
ROBINSON*      CLOUDY    42  39  88 S9        30.12R
CARMI*         CLOUDY    43  42  97 S7        30.12R FOG
$$

ABBREVIATIONS USED IN REMARKS
   TC - TEMPERATURE IN CELSIUS
  WCI - WIND CHILL INDEX
   HX - HEAT INDEX
  VSB - VISIBILITY
$$




USA.gov is the U.S. government's official web portal to all federal, state and local government web resources and services.